2019-036J (44347 NORAD) Tracking and Keplerian Element Data

This shows tracking and keplerian element data for the satellite.

Feedback or suggestion? Click here.




ElementValue
Catalog44347
Name2019-036J
Epoch Orbit384
Epoch Day201.93425638
Epoch Year2019
RAAN34.2974
Inclination28.5334
Eccentricity0.0387614
Argument of Perigee16.7867
Mean Anonmoly344.5165
Mean Motion14.96835781
Decay Rate0.00014278
L11 44347U 19036J 19201.93425638 .00014278 00000-0 22993-3 0 9994
L22 44347 28.5334 34.2974 0387614 16.7867 344.5165 14.96835781 3847

Live tracking and technical data element details for 2019-036J (NORAD 44347). 2019-036J can be tracked NOW for your location showing map with azimuth and elevation plus other details from your city location.

Track the satellite on the map from your city or location and see movement details for azimuth, elevation, latitude, longitude, range, height, and movement on the map or in text.







IsCatalogInMostPopularTable: catalog: 44347, numindb: 5
Update: records affected: 1



GetName: 44347 2019-036J

Hit Count: updated at: Sun, 21 Jul 2019 21:14:10 GMT